TimeCDT,TemperatureF,Dew PointF,Humidity,Sea Level PressureIn,VisibilityMPH,Wind Direction,Wind SpeedMPH,Gust SpeedMPH,PrecipitationIn,Events,Conditions,WindDirDegrees,DateUTC
12:15 AM,41.0,37.4,87,29.94,10.0,Calm,Calm,-,N/A,,Clear,0,2012-10-03 05:15:00
12:35 AM,42.8,37.4,81,29.94,10.0,Calm,Calm,-,N/A,,Scattered Clouds,0,2012-10-03 05:35:00
12:55 AM,41.0,37.4,87,29.94,10.0,Calm,Calm,-,N/A,,Clear,0,2012-10-03 05:55:00
1:15 AM,41.0,37.4,87,29.95,10.0,Calm,Calm,-,N/A,,Clear,0,2012-10-03 06:15:00
1:35 AM,41.0,37.4,87,29.95,10.0,Calm,Calm,-,N/A,,Clear,0,2012-10-03 06:35:00
1:55 AM,42.8,37.4,81,29.96,10.0,Calm,Calm,-,N/A,,Clear,0,2012-10-03 06:55:00
2:15 AM,42.8,37.4,81,29.96,10.0,Calm,Calm,-,N/A,,Clear,0,2012-10-03 07:15:00
2:35 AM,42.8,37.4,81,29.96,10.0,Calm,Calm,-,N/A,,Clear,0,2012-10-03 07:35:00
2:55 AM,42.8,39.2,87,29.96,10.0,Calm,Calm,-,N/A,,Clear,0,2012-10-03 07:55:00
3:15 AM,42.8,39.2,87,29.96,10.0,Calm,Calm,-,N/A,,Clear,0,2012-10-03 08:15:00
3:35 AM,41.0,37.4,87,29.96,10.0,Calm,Calm,-,N/A,,Clear,0,2012-10-03 08:35:00
3:55 AM,42.8,41.0,93,29.96,10.0,Calm,Calm,-,N/A,,Clear,0,2012-10-03 08:55:00
4:15 AM,42.8,41.0,93,29.96,10.0,Calm,Calm,-,N/A,,Scattered Clouds,0,2012-10-03 09:15:00
4:35 AM,44.6,42.8,93,29.96,7.0,Calm,Calm,-,N/A,,Scattered Clouds,0,2012-10-03 09:35:00
4:55 AM,44.6,42.8,93,29.96,5.0,Calm,Calm,-,N/A,,Clear,0,2012-10-03 09:55:00
5:15 AM,46.4,44.6,93,29.96,4.0,Calm,Calm,-,N/A,,Clear,0,2012-10-03 10:15:00
5:35 AM,44.6,44.6,100,29.96,0.5,Calm,Calm,-,N/A,Fog,Fog,0,2012-10-03 10:35:00
5:55 AM,44.6,44.6,100,29.96,0.2,Calm,Calm,-,N/A,Fog,Fog,0,2012-10-03 10:55:00
6:15 AM,44.6,42.8,93,29.96,0.2,Calm,Calm,-,N/A,Fog,Fog,0,2012-10-03 11:15:00
6:35 AM,44.6,44.6,100,29.96,0.2,Calm,Calm,-,N/A,Fog,Fog,0,2012-10-03 11:35:00
6:55 AM,44.6,44.6,100,29.97,0.2,Calm,Calm,-,N/A,Fog,Fog,0,2012-10-03 11:55:00
7:15 AM,46.4,44.6,93,29.97,0.2,Calm,Calm,-,N/A,Fog,Fog,0,2012-10-03 12:15:00
7:35 AM,46.4,46.4,100,29.97,0.2,Calm,Calm,-,N/A,Fog,Fog,0,2012-10-03 12:35:00
7:55 AM,48.2,46.4,93,29.97,1.2,Calm,Calm,-,N/A,,Mostly Cloudy,0,2012-10-03 12:55:00
8:15 AM,51.8,50.0,94,29.97,7.0,Calm,Calm,-,N/A,,Clear,0,2012-10-03 13:15:00
8:35 AM,53.6,51.8,94,29.97,7.0,South,4.6,-,N/A,,Clear,190,2012-10-03 13:35:00
8:55 AM,55.4,51.8,88,29.98,10.0,SSW,4.6,-,N/A,,Clear,210,2012-10-03 13:55:00
9:15 AM,57.2,51.8,82,29.98,10.0,SSW,5.8,-,N/A,,Clear,210,2012-10-03 14:15:00
9:35 AM,59.0,51.8,77,29.98,10.0,South,8.1,-,N/A,,Clear,190,2012-10-03 14:35:00
9:55 AM,60.8,51.8,72,29.98,10.0,SSW,8.1,-,N/A,,Clear,200,2012-10-03 14:55:00
10:15 AM,62.6,51.8,68,29.98,10.0,SSW,8.1,-,N/A,,Clear,210,2012-10-03 15:15:00
10:35 AM,64.4,51.8,64,29.98,10.0,South,4.6,-,N/A,,Clear,180,2012-10-03 15:35:00
10:55 AM,66.2,51.8,60,29.98,10.0,SSW,6.9,-,N/A,,Clear,210,2012-10-03 15:55:00
11:15 AM,66.2,51.8,60,29.98,10.0,SSW,8.1,-,N/A,,Clear,200,2012-10-03 16:15:00
11:35 AM,68.0,51.8,56,29.98,10.0,SW,6.9,-,N/A,,Clear,220,2012-10-03 16:35:00
11:55 AM,69.8,51.8,53,29.97,10.0,WSW,4.6,-,N/A,,Clear,250,2012-10-03 16:55:00
12:15 PM,69.8,48.2,46,29.97,10.0,SW,6.9,-,N/A,,Clear,230,2012-10-03 17:15:00
12:55 PM,71.6,46.4,41,29.95,10.0,WSW,3.5,-,N/A,,Clear,240,2012-10-03 17:55:00
1:15 PM,71.6,44.6,38,29.95,10.0,WSW,5.8,-,N/A,,Clear,240,2012-10-03 18:15:00
1:35 PM,73.4,44.6,36,29.94,10.0,SSW,4.6,-,N/A,,Clear,210,2012-10-03 18:35:00
1:55 PM,73.4,42.8,33,29.93,10.0,WSW,6.9,-,N/A,,Clear,240,2012-10-03 18:55:00
2:15 PM,73.4,42.8,33,29.93,10.0,West,4.6,-,N/A,,Clear,260,2012-10-03 19:15:00
2:35 PM,73.4,42.8,33,29.93,10.0,WSW,4.6,-,N/A,,Clear,250,2012-10-03 19:35:00
2:55 PM,73.4,41.0,31,29.92,10.0,NNW,3.5,-,N/A,,Clear,330,2012-10-03 19:55:00
3:15 PM,75.2,42.8,31,29.92,10.0,SSW,5.8,-,N/A,,Clear,200,2012-10-03 20:15:00
3:35 PM,73.4,41.0,31,29.92,10.0,Calm,Calm,-,N/A,,Clear,0,2012-10-03 20:35:00
3:55 PM,73.4,41.0,31,29.92,10.0,SSE,5.8,-,N/A,,Clear,150,2012-10-03 20:55:00
4:15 PM,73.4,39.2,29,29.92,10.0,Calm,Calm,-,N/A,,Clear,0,2012-10-03 21:15:00
4:35 PM,73.4,41.0,31,29.92,10.0,Calm,Calm,-,N/A,,Clear,0,2012-10-03 21:35:00
4:55 PM,73.4,41.0,31,29.92,10.0,SE,3.5,-,N/A,,Clear,140,2012-10-03 21:55:00
5:15 PM,73.4,41.0,31,29.92,10.0,SE,5.8,-,N/A,,Clear,140,2012-10-03 22:15:00
5:35 PM,73.4,41.0,31,29.92,10.0,SSE,3.5,-,N/A,,Clear,160,2012-10-03 22:35:00
5:55 PM,71.6,41.0,33,29.93,10.0,SE,4.6,-,N/A,,Clear,140,2012-10-03 22:55:00
6:15 PM,69.8,41.0,35,29.94,10.0,SSE,4.6,-,N/A,,Clear,160,2012-10-03 23:15:00
6:35 PM,68.0,41.0,37,29.94,10.0,Calm,Calm,-,N/A,,Clear,0,2012-10-03 23:35:00
6:55 PM,64.4,42.8,45,29.94,10.0,South,3.5,-,N/A,,Clear,190,2012-10-03 23:55:00
7:15 PM,62.6,44.6,52,29.95,10.0,Calm,Calm,-,N/A,,Clear,0,2012-10-04 00:15:00
7:35 PM,57.2,44.6,63,29.95,10.0,Calm,Calm,-,N/A,,Clear,0,2012-10-04 00:35:00
8:15 PM,55.4,44.6,67,29.96,10.0,Calm,Calm,-,N/A,,Clear,0,2012-10-04 01:15:00
8:35 PM,53.6,44.6,72,29.96,10.0,Calm,Calm,-,N/A,,Clear,0,2012-10-04 01:35:00
8:55 PM,53.6,44.6,72,29.96,10.0,Calm,Calm,-,N/A,,Scattered Clouds,0,2012-10-04 01:55:00
9:15 PM,53.6,44.6,72,29.96,10.0,Calm,Calm,-,N/A,,Scattered Clouds,0,2012-10-04 02:15:00
9:35 PM,51.8,44.6,76,29.96,10.0,Calm,Calm,-,N/A,,Clear,0,2012-10-04 02:35:00
9:55 PM,51.8,44.6,76,29.97,10.0,Calm,Calm,-,N/A,,Clear,0,2012-10-04 02:55:00
10:15 PM,51.8,44.6,76,29.97,10.0,Calm,Calm,-,N/A,,Clear,0,2012-10-04 03:15:00
10:35 PM,53.6,46.4,77,29.97,10.0,Calm,Calm,-,N/A,,Clear,0,2012-10-04 03:35:00
10:55 PM,55.4,46.4,72,29.97,10.0,SSE,4.6,-,N/A,,Clear,160,2012-10-04 03:55:00
11:15 PM,59.0,46.4,63,29.96,10.0,South,5.8,-,N/A,,Clear,170,2012-10-04 04:15:00
11:35 PM,59.0,46.4,63,29.96,10.0,South,6.9,-,N/A,,Clear,180,2012-10-04 04:35:00
11:55 PM,59.0,46.4,63,29.96,10.0,South,6.9,-,N/A,,Clear,170,2012-10-04 04:55:00